Flag for Canada Weather past 2 weeks in Saint-Georges, Quebec, Canada

Now
36 °F

Chilly.


Feels Like: 36 °F
Forecast: 30 / 50 °F
Wind: 2 mph from Northwest

Location: Beauceville

Current Time: Apr 18, 2015 at 11:11:08 PM

Latest Report: Apr 18, 2015 at 10:00 PM


Visibility: N/A

Pressure: 30.09 "Hg

Humidity: 79%

Dew point: 30 °F

Location of Saint-GeorgesLocation

Historic Weather in Saint-Georges — Graph

°F

Saint-Georges temperature yesterday

Maximum temperature yesterday: 62 °F (at 4:00 PM)
Minimum temperature yesterday: 33 °F (at 1:00 AM)
Average temperature yesterday: 48 °F

Past Weeks' High & Low Weather Summary

 TemperatureHumidityPressure
High67 °F (Apr 13, 5:00 PM)100% (Apr 4, 5:00 AM)30.55 "Hg (Apr 4, 5:00 AM)
Low-2 °F (Apr 6, 5:00 AM)18% (Apr 8, 3:00 PM)29.45 "Hg (Apr 11, 4:00 AM)
Average36 °F60%30.06 "Hg
* Reported Apr 3 11:00 PM — Apr 18 10:00 PM, Saint-Georges, Weather by CustomWeather, © 2015

Note: Actual official high and low records may vary slightly from our data, if they occured in-between our weather recording intervals... More about our weather records

Advertising

Saint-Georges weather history for previous 24 hours

 ConditionsComfort  
Time TempWeatherWind HumidityBarometerVisibility
10:00 PM
Sat, Apr 18
36 °FChilly.2 mph79%30.09 "HgN/A
9:00 PM38 °FChilly.5 mph74%30.06 "HgN/A
7:00 PM41 °FQuite cool.6 mph62%29.99 "HgN/A
5:00 PM45 °FCool.7 mph53%29.92 "HgN/A
4:00 PM48 °FCool.8 mph44%29.89 "HgN/A
3:00 PM50 °FCool.3 mph30%29.87 "HgN/A
2:00 PM50 °FCool.3 mph28%29.88 "HgN/A
1:00 PM49 °FCool.5 mph31%29.89 "HgN/A
12:00 PM46 °FCool.6 mph38%29.92 "HgN/A
11:00 AM43 °FQuite cool.5 mph51%29.95 "HgN/A
10:00 AM40 °FChilly.3 mph56%29.97 "HgN/A
9:00 AM38 °FChilly.7 mph65%29.97 "HgN/A
8:00 AM33 °FChilly.3 mph78%29.96 "HgN/A
7:00 AM30 °FChilly.1 mph89%29.97 "HgN/A
6:00 AM28 °FChilly.1 mph90%29.96 "HgN/A
5:00 AM28 °FChilly.1 mph88%29.96 "HgN/A
4:00 AM30 °FChilly.2 mph85%29.95 "HgN/A
3:00 AM31 °FChilly.2 mph84%29.94 "HgN/A
2:00 AM36 °FChilly.6 mph71%29.93 "HgN/A
1:00 AM39 °FChilly.6 mph64%29.91 "HgN/A
12:00 AM41 °FQuite cool.2 mph61%29.89 "HgN/A
11:00 PM
Fri, Apr 17
45 °FQuite cool.6 mph50%29.86 "HgN/A
Weather by CustomWeather, © 2015

See weather overviewHow to use our weather pages